Tracking 19170 objects as of 22-May-2018
HD Live streaming from Space Station
objects crossing your sky now

MUNIN

Track MUNIN now!
10-day predictions
MUNIN is classified as:


NORAD ID: 26621
Int'l Code: 2000-075C
Perigee: 710.8 km
Apogee: 1,795.1 km
Inclination: 95.4 °
Period: 110.4 minutes
Semi major axis: 7623 km
RCS: 0.165 m2 (medium)
Launch date: November 21, 2000
Source: Sweden (SWED)
Launch site: AIR FORCE WESTERN TEST RANGE (AFWTR)
aabbcc
Your satellite tracking list
Your tracking list is empty




NASA's NSSDC Master Catalog

Two Line Element Set (TLE):
1 26621U 00075C   18141.68282078 +.00000250 +00000-0 +24720-3 0  9990
2 26621 095.4128 037.1611 0711070 285.7347 066.6495 13.04165366832519
Source of the keplerian elements: AFSPC